Location: Honolulu
(21.3069°N, 157.8583°W)
Time: 06:34:25
(UTC-10:00)

Tiros 1 despin weight - Pass Details

Date: 15 May 2026
Orbit: 554 x 591 km, 48.2° (Epoch: 10 June)

Event Time Altitude Azimuth Distance (km) Brightness Sun altitude
Exits shadow 03:35:17 37° 61° (ENE) 883 ? -29.0°
Drops below altitude 10° 03:37:58 10° 49° (NE) 1,853 ? -28.5°
Sets 03:40:13 0° 47° (NE) 2,744 ? -28.1°
